This demonstration page uses our WeatherBlox Daily Observations layout. Learn more.

36.17497, -115.13722

Hourly Observations for July 18, 2016

Temp ( °F °C ) Dew Point ( °F °C ) Humidity (%) Winds ( mph kmh ) Pressure ( in mb ) Visibility ( mi km ) Precip ( " mm )
12:53 am 00:53 Clear 91 32.8 25 -3.9 9 9 SW 8 13 29.71 1006 10 16.09344 0 0
1:53 am 01:53 Clear 88 31.1 26 -3.3 10 10 SSE 3 6 29.74 1007 10 16.09344 0 0
2:53 am 02:53 Clear 87 30.6 29 -1.7 12 12 SE 5 7 29.77 1008 10 16.09344 0 0
3:53 am 03:53 Clear 88 31.1 27 -2.8 11 11 S 12 19 29.77 1008 10 16.09344 0 0
4:53 am 04:53 Clear 84 28.9 28 -2.2 13 13 SE 9 15 29.77 1008 10 16.09344 0 0
5:53 am 05:53 Sunny 86 30 30 -1.1 13 13 S 9 15 29.8 1009 10 16.09344 0 0
6:53 am 06:53 Sunny 88 31.1 29 -1.7 12 12 S 10 17 29.83 1010 10 16.09344 0 0
7:53 am 07:53 Sunny 89 31.7 33 0.6 14 14 SE 12 19 29.83 1010 10 16.09344 0 0
8:53 am 08:53 Sunny 93 33.9 30 -1.1 10 10 SSE 16 26 29.83 1010 10 16.09344 0 0
9:53 am 09:53 Sunny 96 35.6 29 -1.7 9 9 S 17 28 29.83 1010 10 16.09344 0 0
10:53 am 10:53 Sunny 98 36.7 32 0 10 10 S 16 26 29.83 1010 10 16.09344 0 0
11:53 am 11:53 Sunny 100 37.8 36 2.2 11 11 S 17 28 29.77 1008 10 16.09344 0 0
12:53 pm 12:53 Sunny 102 38.9 35 1.7 10 10 SSW 14 22 29.74 1007 10 16.09344 0 0
1:53 pm 13:53 Sunny 103 39.4 38 3.3 11 11 SW 16 26 29.74 1007 10 16.09344 0 0
2:53 pm 14:53 Sunny 104 40 37 2.8 10 10 SW 14 22 29.71 1006 10 16.09344 0 0
3:53 pm 15:53 Sunny 104 40 36 2 9 9 SW 9 15 29.65 1004 10 16.09344 0 0
4:53 pm 16:53 Sunny 104 40 38 3.3 10 10 W 16 26 29.65 1004 10 16.09344 0 0
5:53 pm 17:53 Sunny 103 39.4 38 3.3 11 11 WSW 15 24 29.65 1004 10 16.09344 0 0
6:53 pm 18:53 Sunny 102 38.9 35 1.7 10 10 W 13 20 29.68 1005 10 16.09344 0 0
7:53 pm 19:53 Sunny 100 37.8 35 1.7 10 10 WSW 12 19 29.68 1005 10 16.09344 0 0
8:53 pm 20:53 Clear 97 36.1 34 1.1 11 11 WSW 8 13 29.71 1006 10 16.09344 0 0
9:53 pm 21:53 Clear 96 35.6 34 1.1 11 11 WSW 7 11 29.74 1007 10 16.09344 0 0
10:53 pm 22:53 Clear 94 34.4 36 2.2 13 13 SW 5 7 29.77 1008 10 16.09344 0 0
11:53 pm 23:53 Clear 93 33.9 36 2.2 13 13 WSW 8 13 29.77 1008 10 16.09344 0 0

Powered by AerisWeather